Wind_Speed
9 9 9 9 9 9 10 10 10 10 11 11 10 10 9 8 8 7 6 5 5 4 4 4 3 4 4 5 5 6 6 6 7 8 8 9 9 9 9 10 10 10 11
9 10 10 9 9 9 10 10 10 10 11 11 11 10 9 9 9 8 7 6 5 4 4 4 3 4 5 5 5 6 7 7 7 7 8 8 9 9 9 9 10 10 11
10 9 9 8 9 9 10 10 11 10 10 11 11 11 10 10 9 9 8 7 6 6 5 5 6 6 6 6 6 7 7 7 8 8 9 9 10 9 10 10 11 11 11
12 11 9 8 9 9 10 10 10 10 10 10 10 11 10 10 10 9 8 8 7 7 7 7 7 7 7 6 7 7 7 7 7 8 9 9 10 10 10 11 11 11 12
12 11 11 10 9 9 9 10 10 10 10 10 11 11 11 11 11 10 9 9 9 8 9 8 8 8 7 7 8 8 8 8 8 8 8 8 9 9 10 10 11 11 11
13 12 12 11 11 10 10 11 11 11 11 11 11 12 12 11 11 11 10 10 10 10 10 10 10 9 9 8 8 8 8 9 8 8 8 8 9 9 9 10 11 11 11
14 13 13 13 13 12 12 12 12 12 12 12 12 12 12 11 11 11 11 11 10 11 11 11 11 11 11 10 10 10 9 9 9 9 9 9 10 10 11 11 12 12 12
15 14 13 14 14 14 13 13 13 13 14 13 13 13 13 12 12 12 13 13 12 12 12 12 12 12 13 12 12 11 11 10 10 10 11 11 11 12 12 13 13 13 13
17 17 16 16 16 16 15 15 15 15 15 15 14 14 13 13 13 14 14 15 14 14 13 13 13 14 13 13 13 13 12 12 12 12 13 13 13 14 14 14 15 14 14
19 19 18 18 17 17 17 17 17 16 16 16 16 15 14 14 14 15 16 16 16 16 15 14 15 15 14 14 14 14 14 14 14 14 14 15 15 15 15 15 16 16 16
21 21 20 21 19 19 19 19 19 18 18 18 17 16 16 15 16 17 17 17 17 17 17 16 16 16 16 16 16 16 16 16 16 16 16 17 17 17 17 17 17 18 18
22 22 22 22 21 21 21 21 21 20 20 20 19 19 17 17 18 19 19 19 19 18 18 19 19 18 18 18 18 18 18 18 18 18 18 18 19 18 19 19 20 20 20
25 25 25 24 22 22 23 22 22 22 21 20 20 20 20 19 20 20 21 21 21 20 21 21 20 20 20 20 20 20 20 20 20 20 20 20 20 19 20 21 21 22 22
25 26 26 26 24 24 24 24 23 23 22 21 21 22 21 22 22 22 23 23 22 22 23 22 22 22 22 21 22 22 22 22 22 22 22 23 22 22 22 22 23 23 23
27 25 26 27 26 25 25 25 24 24 24 23 23 24 24 24 24 24 24 25 24 24 24 24 24 24 24 24 24 24 24 24 24 24 24 24 25 24 24 24 24 25 25
27 26 25 26 26 26 26 26 26 26 26 25 25 25 26 26 26 26 26 26 26 26 26 25 25 25 25 25 25 25 25 26 25 25 26 26 26 27 26 26 26 27 27
27 26 26 26 27 27 27 27 28 28 28 28 28 28 28 28 28 28 28 27 27 27 26 26 27 27 27 27 27 27 27 27 28 27 27 27 28 28 28 28 28 29 29
27 26 26 28 27 27 28 28 29 30 30 30 30 29 30 30 29 30 29 28 28 28 28 28 29 28 28 29 28 28 28 28 28 28 28 29 29 29 30 31 31 31 31
27 27 28 28 29 29 30 30 31 31 31 31 31 31 32 32 32 31 30 30 30 30 30 30 30 29 28 28 29 29 30 29 29 29 29 30 31 31 32 32 32 32 32
28 28 29 29 30 31 31 31 32 33 33 33 33 33 33 34 34 32 32 32 32 32 32 32 31 30 29 29 30 31 31 31 31 31 31 31 31 32 32 33 34 34 34
30 30 30 30 31 32 33 33 32 33 33 34 34 34 34 34 33 32 32 33 34 34 34 34 32 32 32 31 32 32 32 32 32 32 32 33 33 34 34 35 35 36 36
32 32 32 32 33 33 34 34 34 34 34 35 35 35 35 34 34 34 33 34 34 35 35 34 33 33 33 33 33 34 35 34 34 34 34 34 35 35 36 37 37 37 38
32 32 33 34 34 35 35 36 36 36 36 36 36 36 36 35 34 35 35 35 35 35 35 36 35 34 34 35 35 36 36 36 36 36 36 36 36 37 38 38 38 39 39
32 32 34 35 36 36 36 37 36 37 37 37 37 37 36 35 36 35 35 36 36 35 35 35 34 35 34 35 35 37 37 37 37 37 38 38 38 38 37 37 37 38 38
34 34 34 36 36 36 36 36 36 36 36 36 37 37 37 36 36 36 37 36 36 36 35 36 36 36 36 37 37 38 37 37 37 38 38 38 38 37 37 37 37 38 39
34 35 35 35 36 36 36 36 36 37 37 37 37 37 36 36 36 36 36 35 36 36 36 36 36 36 37 37 38 38 38 38 37 37 37 38 37 37 37 38 37 37 37
Wind_Direction
360 3 7 10 15 20 24 24 20 19 18 17 16 17 16 14 13 13 8 359 352 347 346 337 316 292 281 288 287 278 272 270 263 263 263 267 268 269 269 268 265 263 264
343 350 354 1 6 7 8 9 11 11 12 13 12 10 11 7 6 7 4 1 353 345 345 351 336 321 309 305 306 291 280 274 272 269 270 273 271 271 270 271 270 268 264
330 333 340 348 352 355 356 357 2 6 4 4 6 5 4 3 3 3 2 357 355 348 340 338 335 328 321 313 302 294 288 283 277 277 278 276 272 270 273 274 272 270 271
320 323 328 333 337 342 345 347 352 357 357 357 360 358 357 354 355 354 355 354 349 342 337 332 331 326 320 313 306 302 294 291 289 286 281 276 275 274 277 279 276 271 271
305 309 314 319 322 326 330 334 338 344 347 349 349 350 350 349 351 349 347 346 345 340 335 331 326 325 324 316 302 299 297 294 293 294 291 286 283 283 283 282 283 282 280
296 299 303 308 309 310 315 321 326 331 334 337 339 339 340 339 341 343 341 339 338 338 337 334 329 325 322 321 316 308 300 298 293 291 292 291 288 289 290 289 285 285 284
289 291 295 299 299 299 303 309 313 316 319 321 325 327 330 330 331 332 335 334 331 330 328 327 325 323 320 318 315 311 306 301 297 293 291 290 288 287 287 289 287 283 282
280 283 286 291 292 291 293 298 301 305 308 310 313 317 320 321 322 324 325 327 326 323 318 317 316 317 316 313 311 310 307 300 295 294 292 291 289 286 286 289 290 289 285
274 277 281 283 286 287 289 292 294 297 299 300 302 307 313 315 315 316 318 320 319 317 314 309 311 312 311 310 307 306 305 298 294 293 292 291 291 287 284 285 286 287 289
269 273 276 278 280 283 285 288 292 296 297 297 298 299 301 303 306 309 313 315 315 313 313 308 307 308 308 308 307 302 300 298 293 291 292 292 289 288 285 283 284 285 285
264 268 273 275 275 279 281 284 287 290 293 293 294 293 294 296 299 304 307 309 309 309 307 306 305 302 301 301 302 301 297 294 292 291 291 292 291 287 282 280 282 285 284
261 264 270 272 272 274 277 279 282 284 287 288 291 290 290 292 294 297 300 302 303 304 304 304 303 299 297 298 298 296 295 293 290 290 290 290 290 288 283 280 281 281 282
261 263 268 271 271 272 273 275 278 280 283 288 290 289 289 291 292 293 296 297 298 299 302 303 300 297 296 296 296 294 292 290 289 289 289 289 289 287 285 284 282 281 281
260 262 262 268 270 272 272 272 275 276 280 284 285 285 287 289 290 291 292 293 295 296 297 298 298 296 295 296 295 294 292 290 289 288 288 288 288 288 286 285 284 282 280
266 262 260 263 265 269 272 273 275 277 279 280 281 283 284 287 288 289 288 290 292 293 294 294 295 295 295 294 294 292 291 290 288 287 288 287 287 288 287 286 285 282 280
265 263 260 261 263 266 269 270 273 275 277 278 279 282 283 284 284 286 287 287 288 290 291 292 293 294 295 293 291 290 289 289 289 287 286 285 284 285 286 285 283 282 282
265 263 262 261 260 263 266 268 272 273 274 277 278 279 281 282 283 284 285 286 285 286 288 289 290 290 292 291 289 288 289 288 287 287 286 284 283 281 282 282 282 281 282
266 266 264 262 260 262 265 268 270 272 273 274 276 278 279 280 281 282 283 283 283 284 285 287 290 289 290 289 288 288 288 290 289 287 285 284 282 280 280 281 282 282 282
266 265 264 262 261 264 265 266 269 271 272 273 274 277 279 278 279 280 281 281 281 281 282 284 285 286 287 288 288 288 288 288 288 287 287 285 282 281 281 281 282 281 281
265 264 263 263 263 264 266 269 271 273 272 272 275 278 280 281 279 277 278 280 280 280 280 280 281 283 284 287 288 288 288 286 286 286 287 289 286 284 283 282 281 281 281
262 262 262 263 264 265 268 270 272 276 277 276 276 278 280 280 278 276 278 280 280 279 280 279 280 282 282 284 285 285 286 285 284 284 286 287 287 286 284 283 282 281 280
262 262 263 264 266 267 269 272 273 276 278 278 277 277 278 278 278 276 277 280 281 280 280 280 282 283 281 281 282 283 283 284 285 285 285 285 285 284 283 283 283 281 281
263 263 264 266 267 268 269 271 273 275 276 278 279 278 280 278 279 280 278 281 280 282 281 282 282 282 281 280 281 282 283 283 284 284 285 285 285 285 283 282 282 282 281
265 265 266 268 269 270 271 272 274 274 275 278 279 279 280 279 278 279 280 281 280 282 282 282 282 281 280 280 280 282 282 283 284 284 285 286 285 285 284 282 283 284 283
267 268 269 269 270 271 271 273 275 274 275 277 278 278 279 280 280 278 278 279 280 281 282 281 282 282 281 281 282 282 282 282 283 284 284 285 285 283 282 283 285 284 282
268 270 271 272 271 272 272 273 275 276 277 277 278 279 279 280 280 280 281 281 281 281 280 281 282 283 283 282 282 282 282 283 283 283 283 283 283 282 282 283 283 282 280
Height
5904 5903 5902 5901 5900 5899 5899 5898 5897 5896 5895 5894 5892 5891 5890 5889 5888 5887 5886 5885 5885 5885 5885 5885 5885 5885 5885 5885 5885 5885 5886 5886 5887 5887 5888 5888 5889 5890 5890 5890 5890 5891 5891
5905 5903 5903 5902 5901 5900 5899 5898 5897 5897 5896 5895 5894 5892 5891 5890 5889 5888 5887 5886 5886 5885 5885 5885 5885 5885 5885 5885 5885 5885 5885 5885 5885 5886 5886 5887 5888 5888 5888 5888 5888 5888 5888
5905 5904 5903 5902 5901 5901 5900 5899 5898 5897 5896 5895 5894 5893 5892 5891 5890 5889 5888 5887 5886 5886 5885 5885 5885 5884 5884 5884 5884 5884 5883 5883 5883 5884 5884 5885 5885 5885 5886 5885 5886 5886 5886
5904 5903 5903 5902 5902 5901 5900 5899 5898 5897 5896 5895 5894 5893 5892 5891 5890 5889 5888 5887 5886 5886 5885 5885 5884 5884 5883 5883 5883 5882 5882 5882 5882 5882 5882 5882 5882 5883 5883 5883 5883 5882 5883
5903 5902 5902 5901 5901 5900 5900 5899 5898 5897 5896 5895 5894 5893 5892 5891 5890 5889 5888 5887 5886 5885 5885 5884 5883 5883 5882 5882 5881 5881 5880 5880 5880 5880 5880 5880 5880 5880 5880 5880 5880 5880 5879
5901 5901 5900 5900 5900 5899 5899 5898 5897 5896 5895 5894 5893 5892 5891 5890 5890 5889 5887 5886 5886 5885 5884 5883 5882 5882 5881 5880 5880 5879 5879 5878 5878 5878 5878 5878 5878 5878 5877 5877 5877 5877 5877
5899 5899 5898 5898 5898 5897 5897 5897 5896 5895 5894 5893 5892 5891 5890 5889 5889 5888 5887 5886 5885 5884 5883 5882 5881 5880 5880 5879 5878 5877 5877 5876 5876 5875 5875 5875 5875 5875 5875 5874 5874 5874 5874
5896 5896 5896 5895 5895 5895 5894 5894 5894 5893 5892 5891 5891 5889 5888 5888 5887 5886 5885 5884 5883 5882 5881 5880 5879 5878 5877 5877 5876 5875 5875 5874 5874 5873 5873 5872 5872 5871 5871 5871 5871 5871 5870
5893 5892 5892 5892 5892 5891 5891 5891 5891 5890 5890 5889 5889 5888 5887 5886 5885 5884 5883 5882 5881 5880 5879 5878 5877 5876 5875 5874 5873 5872 5872 5871 5871 5870 5870 5869 5868 5868 5867 5867 5867 5867 5866
5888 5888 5888 5888 5888 5888 5888 5887 5887 5886 5886 5886 5885 5885 5884 5883 5883 5882 5881 5880 5878 5877 5876 5875 5874 5873 5872 5871 5870 5869 5868 5868 5867 5867 5866 5865 5865 5864 5863 5863 5862 5862 5862
5882 5882 5883 5883 5883 5883 5884 5884 5883 5883 5883 5882 5882 5881 5880 5880 5879 5879 5878 5877 5875 5874 5873 5872 5870 5869 5868 5867 5867 5866 5865 5864 5863 5862 5862 5861 5860 5860 5859 5858 5858 5858 5857
5877 5877 5878 5878 5878 5878 5879 5879 5879 5879 5878 5878 5877 5876 5876 5876 5875 5875 5874 5873 5872 5870 5869 5868 5867 5865 5864 5863 5862 5861 5860 5859 5858 5858 5857 5856 5856 5855 5854 5853 5853 5852 5852
5871 5871 5872 5873 5873 5874 5874 5874 5874 5874 5873 5873 5873 5872 5871 5871 5871 5870 5869 5868 5867 5866 5865 5864 5862 5861 5859 5859 5858 5856 5855 5854 5854 5853 5852 5851 5850 5850 5849 5848 5847 5847 5846
5865 5865 5866 5867 5868 5868 5868 5869 5869 5869 5869 5868 5868 5868 5867 5866 5865 5865 5864 5863 5862 5861 5860 5858 5857 5855 5854 5853 5852 5851 5850 5849 5848 5847 5846 5845 5845 5844 5843 5842 5842 5840 5840
5856 5856 5858 5860 5861 5862 5862 5863 5863 5863 5863 5863 5863 5862 5861 5860 5860 5859 5859 5858 5857 5855 5854 5852 5851 5849 5848 5847 5845 5844 5843 5842 5841 5841 5840 5839 5838 5838 5837 5836 5835 5834 5833
5851 5851 5852 5853 5854 5855 5856 5856 5857 5857 5857 5857 5857 5856 5855 5854 5853 5853 5852 5851 5850 5849 5847 5846 5844 5843 5841 5840 5839 5837 5836 5835 5834 5834 5833 5832 5832 5831 5830 5829 5829 5828 5827
5845 5845 5845 5846 5847 5848 5849 5850 5850 5850 5850 5850 5850 5849 5848 5847 5847 5846 5845 5843 5843 5842 5840 5839 5837 5836 5834 5833 5832 5830 5829 5828 5827 5826 5825 5825 5824 5823 5823 5822 5821 5820 5819
5837 5838 5839 5839 5840 5841 5842 5843 5843 5843 5843 5843 5842 5841 5841 5840 5839 5838 5837 5836 5835 5833 5832 5831 5830 5828 5827 5825 5824 5823 5822 5821 5819 5818 5817 5816 5816 5815 5815 5814 5813 5812 5811
5831 5832 5832 5833 5834 5834 5835 5836 5835 5835 5835 5834 5834 5833 5832 5831 5830 5830 5829 5828 5826 5825 5824 5823 5822 5821 5819 5818 5817 5815 5814 5813 5811 5810 5809 5808 5807 5806 5805 5805 5804 5803 5802
5824 5825 5825 5826 5827 5827 5827 5827 5827 5827 5826 5825 5825 5824 5823 5822 5821 5821 5820 5819 5817 5816 5815 5814 5813 5812 5811 5810 5809 5807 5806 5804 5803 5801 5800 5799 5798 5797 5796 5795 5795 5794 5793
5816 5817 5818 5819 5819 5819 5819 5819 5819 5818 5817 5816 5815 5815 5814 5812 5812 5811 5811 5810 5808 5806 5806 5806 5804 5804 5802 5801 5800 5798 5797 5796 5794 5793 5792 5790 5789 5788 5786 5785 5784 5784 5783
5808 5809 5810 5811 5810 5810 5811 5811 5810 5810 5808 5807 5806 5805 5804 5802 5802 5801 5801 5800 5798 5797 5796 5795 5795 5794 5793 5791 5790 5789 5787 5786 5784 5783 5782 5781 5779 5778 5776 5775 5774 5772 5771
5800 5800 5801 5802 5802 5802 5802 5802 5801 5800 5800 5798 5797 5795 5793 5792 5792 5792 5791 5790 5789 5788 5787 5786 5785 5784 5783 5781 5780 5778 5776 5775 5774 5773 5772 5770 5769 5767 5766 5764 5763 5761 5760
5791 5792 5792 5792 5793 5793 5792 5792 5791 5791 5790 5788 5787 5786 5784 5783 5782 5781 5780 5780 5779 5778 5777 5776 5775 5773 5772 5771 5769 5767 5766 5764 5763 5762 5761 5760 5758 5756 5755 5753 5751 5750 5749
5782 5782 5783 5782 5782 5782 5781 5781 5781 5781 5780 5778 5777 5775 5774 5773 5771 5770 5769 5769 5768 5767 5766 5765 5764 5763 5762 5761 5759 5757 5755 5754 5752 5751 5750 5748 5747 5745 5744 5742 5741 5739 5738
5773 5773 5773 5773 5773 5772 5772 5771 5771 5770 5769 5768 5767 5765 5763 5763 5762 5760 5759 5758 5757 5756 5755 5754 5753 5752 5751 5749 5747 5745 5744 5742 5741 5740 5739 5737 5736 5734 5733 5731 5730 5728 5727